User: anonymous   Login
Location: Ay?beleni
(36.6500°N, 30.3000°E)
Time: 15:58:45
(UTC+00:00)
Language:

Cosmos 2237 Rocket - Orbit

View from above orbital plane
View from above orbital plane
View from above satellite
View from above satellite

Ground track
Ground track

The orbit data is extracted from the following two-line orbital elements,

1 22566U 93016B   21163.65476349 -.00000189  00000-0 -72992-4 0  9990
2 22566  71.0076 249.6475 0008154  74.5459 285.6563 14.14970820457280
Epoch (UTC): 12 June 2021 15:42:51
Eccentricity: 0.0008154
inclination: 71.0076°
perigee height: 836 km
apogee height: 848 km
right ascension of ascending node: 249.6475°
argument of perigee: 74.5459°
revolutions per day: 14.14970820
mean anomaly at epoch: 285.6563°
orbit number at epoch: 45728

The dashed part of the orbit path shows where the satellite is in the earth's shadow,  

DLR